Hourly Data Report for August 24, 2013

All times are specified in Local Standard Time (LST). Add 1 hour to adjust for Daylight Saving Time where and when it is observed.

VICTORIA INTL A
BRITISH COLUMBIA

48°38'50.000" N
123°25'33.000" W
19.50 m
1018621
71799
YYJ

Download Data

Hourly Data (August 2013)
Hourly Data Report for August 24, 2013
Temp Definition
°C
Dew Point Temp Definition
°C
Rel Hum Definition
%
Wind Dir Definition
10's deg

Wind Spd Definition
km/h
Visibility Definition
km
Stn Press Definition
kPa
Hmdx Definition


Wind Chill Definition


Weather Definition


TIME
00:00 Legend Double Dagger 15.3 13.9 91 35 4 48.3 100.95     LegendNANA
01:00 Legend Double Dagger 14.3 12.9 91 11 5 48.3 100.95     Cloudy
02:00 Legend Double Dagger 13.6 11.8 89 9 5 48.3 100.97     LegendNANA
03:00 Legend Double Dagger 12.4 11.5 94 14 9 48.3 100.97     LegendNANA
04:00 Legend Double Dagger 12.3 11.4 94 12 3 48.3 100.96     Mostly Cloudy
05:00 Legend Double Dagger 12.7 11.6 93 8 5 48.3 100.93     LegendNANA
06:00 Legend Double Dagger 12.9 11.8 93 20 2 48.3 100.96     LegendNANA
07:00 Legend Double Dagger 14.6 12.7 88 6 5 48.3 100.99     Mostly Cloudy
08:00 Legend Double Dagger 15.4 12.6 83 9 5 48.3 101.00     LegendNANA
09:00 Legend Double Dagger 16.5 12.7 78 10 10 48.3 101.00     LegendNANA
10:00 Legend Double Dagger 17.0 12.8 76 13 16 48.3 101.00     Mostly Cloudy
11:00 Legend Double Dagger 17.4 12.8 74 14 23 48.3 101.01     LegendNANA
12:00 Legend Double Dagger 17.9 13.3 74 12 22 48.3 100.95     LegendNANA
13:00 Legend Double Dagger 18.1 12.6 70 14 24 48.3 100.99     Mostly Cloudy
14:00 Legend Double Dagger 17.4 12.4 72 14 24 48.3 100.97     LegendNANA
15:00 Legend Double Dagger 17.5 12.3 71 13 15 48.3 100.95     LegendNANA
16:00 Legend Double Dagger 17.4 13.6 78 4 6 48.3 100.97     Rain Showers
17:00 Legend Double Dagger 16.8 13.2 79 5 6 48.3 100.97     Rain Showers
18:00 Legend Double Dagger 17.4 13.4 77 8 3 48.3 100.94     LegendNANA
19:00 Legend Double Dagger 16.8 12.8 77 35 6 48.3 100.96     Mostly Cloudy
20:00 Legend Double Dagger 16.5 13.1 80 34 2 32.2 101.01     LegendNANA
21:00 Legend Double Dagger 13.9 11.6 86 11 6 32.2 101.05     LegendNANA
22:00 Legend Double Dagger 14.8 11.8 82 27 10 32.2 101.07     Mainly Clear
23:00 Legend Double Dagger 14.5 12.0 85 29 15 32.2 101.10     LegendNANA

Notes on Data Quality.

Legend

  • E = Estimated
  • M = Missing
  • NA = Not Available
  • ‡ = Partner data that is not subject to review by the National Climate Archives
Date modified: